GLD1069 MDPP-MYNN

Flight info

Callsign GLD1069
Flight time 1h 31m
Altitude 36000
Route MALVN3C MALVN Y396 RUMFO DCT ZQA136085 DCT BOSAR
Aircraft B737/M-SDE2E3FGHIRWXY/LB1

Departure

Time 2026-05-05 23:46
Airport Gregorio Luperon International Airport (MDPP)

Arrival

Time 2026-05-06 01:17
Airport Lynden Pindling International Airport (MYNN)
Time Latitude Longitude Altitude Speed Heading
2026-05-05 23:17 19.75608 -70.56485 32 ft 0 kts 163°
2026-05-05 23:35 19.75615 -70.56487 34 ft 4 kts 163°
2026-05-05 23:36 19.75641 -70.56495 34 ft 4 kts 168°
2026-05-05 23:36 19.75667 -70.56496 32 ft 4 kts 195°
2026-05-05 23:36 19.75687 -70.56484 30 ft 3 kts 249°
2026-05-05 23:36 19.75688 -70.56480 34 ft 1 kts 252°
2026-05-05 23:39 19.75688 -70.56481 34 ft 1 kts 252°
2026-05-05 23:40 19.75679 -70.56513 34 ft 8 kts 253°
2026-05-05 23:40 19.75658 -70.56586 32 ft 13 kts 252°
2026-05-05 23:40 19.75627 -70.56689 34 ft 16 kts 252°
2026-05-05 23:40 19.75589 -70.56815 34 ft 20 kts 252°
2026-05-05 23:41 19.75550 -70.56948 33 ft 18 kts 251°
2026-05-05 23:41 19.75546 -70.57059 32 ft 12 kts 309°
2026-05-05 23:41 19.75601 -70.57119 33 ft 11 kts 313°
2026-05-05 23:41 19.75658 -70.57184 32 ft 13 kts 313°
2026-05-05 23:42 19.75704 -70.57268 32 ft 13 kts 271°
2026-05-05 23:42 19.75679 -70.57372 32 ft 16 kts 252°
2026-05-05 23:42 19.75644 -70.57491 31 ft 18 kts 253°
2026-05-05 23:42 19.75605 -70.57630 32 ft 21 kts 253°
2026-05-05 23:43 19.75561 -70.57780 34 ft 22 kts 253°
2026-05-05 23:43 19.75517 -70.57935 35 ft 23 kts 253°
2026-05-05 23:43 19.75470 -70.58101 33 ft 24 kts 257°
2026-05-05 23:43 19.75436 -70.58270 35 ft 23 kts 256°
2026-05-05 23:44 19.75401 -70.58365 35 ft 3 kts 155°
2026-05-05 23:44 19.75399 -70.58343 34 ft 6 kts 81°
2026-05-05 23:44 19.75403 -70.58329 34 ft 0 kts 73°
2026-05-05 23:45 19.75471 -70.58089 32 ft 69 kts 73°
2026-05-05 23:45 19.75677 -70.57377 32 ft 129 kts 73°
2026-05-05 23:46 19.75995 -70.56336 204 ft 161 kts 74°
2026-05-05 23:46 19.76318 -70.55240 922 ft 152 kts 78°
2026-05-05 23:46 19.76627 -70.54155 1550 ft 157 kts 78°
2026-05-05 23:46 19.76961 -70.52976 1917 ft 182 kts 80°
2026-05-05 23:47 19.77383 -70.51590 2135 ft 217 kts 68°
2026-05-05 23:47 19.78454 -70.50272 2311 ft 259 kts 38°
2026-05-05 23:47 19.80237 -70.49635 2763 ft 284 kts
2026-05-05 23:47 19.82170 -70.50050 3623 ft 288 kts 339°
2026-05-05 23:48 19.84082 -70.50628 4487 ft 285 kts 360°
2026-05-05 23:48 19.86007 -70.50200 5274 ft 285 kts 29°
2026-05-05 23:48 19.87705 -70.49181 5822 ft 279 kts 26°
2026-05-05 23:48 19.89481 -70.48367 5970 ft 278 kts 20°
2026-05-05 23:49 19.91310 -70.47684 6109 ft 282 kts 18°
2026-05-05 23:49 19.93237 -70.47230 6831 ft 285 kts
2026-05-05 23:49 19.95230 -70.47147 7633 ft 290 kts
2026-05-05 23:49 19.97256 -70.47310 8369 ft 298 kts 342°
2026-05-05 23:50 19.99056 -70.48414 9126 ft 303 kts 314°
2026-05-05 23:50 20.00228 -70.50272 9847 ft 306 kts 286°
2026-05-05 23:50 20.00599 -70.52487 10539 ft 311 kts 271°
2026-05-05 23:50 20.00701 -70.54876 10744 ft 337 kts 270°
2026-05-05 23:51 20.00750 -70.57457 10931 ft 361 kts 269°
2026-05-05 23:51 20.00794 -70.60210 11140 ft 381 kts 270°
2026-05-05 23:51 20.00847 -70.63058 11726 ft 388 kts 270°
2026-05-05 23:51 20.00912 -70.65912 12594 ft 386 kts 271°
2026-05-05 23:52 20.00984 -70.68765 13433 ft 385 kts 271°
2026-05-05 23:52 20.01061 -70.71602 14195 ft 385 kts 271°
2026-05-05 23:52 20.01141 -70.74460 14895 ft 385 kts 271°
2026-05-05 23:52 20.01222 -70.77318 15469 ft 391 kts 271°
2026-05-05 23:53 20.01305 -70.80228 15998 ft 395 kts 271°
2026-05-05 23:53 20.01383 -70.82984 16608 ft 396 kts 271°
2026-05-05 23:53 20.01468 -70.86009 17252 ft 398 kts 271°
2026-05-05 23:53 20.01550 -70.88977 17698 ft 404 kts 271°
2026-05-05 23:54 20.01634 -70.91989 18108 ft 410 kts 271°
2026-05-05 23:54 20.01716 -70.94993 18574 ft 413 kts 271°
2026-05-05 23:54 20.01800 -70.98047 19046 ft 414 kts 271°
2026-05-05 23:54 20.01884 -71.01119 19503 ft 416 kts 272°
2026-05-05 23:55 20.01967 -71.04203 19939 ft 419 kts 272°
2026-05-05 23:55 20.02050 -71.07307 20355 ft 421 kts 272°
2026-05-05 23:55 20.02300 -71.10412 20746 ft 424 kts 283°
2026-05-05 23:55 20.03406 -71.13322 21157 ft 427 kts 300°
2026-05-05 23:56 20.05191 -71.15845 21603 ft 430 kts 313°
2026-05-05 23:56 20.07553 -71.17812 21997 ft 435 kts 326°
2026-05-05 23:56 20.10159 -71.19476 22396 ft 437 kts 328°
2026-05-05 23:56 20.12802 -71.21094 22793 ft 439 kts 328°
2026-05-05 23:57 20.15451 -71.22709 23168 ft 440 kts 328°
2026-05-05 23:57 20.18110 -71.24349 23518 ft 442 kts 327°
2026-05-05 23:57 20.20768 -71.26010 23812 ft 444 kts 327°
2026-05-05 23:57 20.23424 -71.27685 24104 ft 445 kts 327°
2026-05-05 23:58 20.26092 -71.29377 24408 ft 446 kts 327°
2026-05-05 23:58 20.28756 -71.31070 24699 ft 447 kts 327°
2026-05-05 23:58 20.31429 -71.32769 24967 ft 448 kts 327°
2026-05-05 23:58 20.34115 -71.34477 25233 ft 449 kts 327°
2026-05-05 23:59 20.36803 -71.36185 25498 ft 450 kts 327°
2026-05-05 23:59 20.39493 -71.37895 25759 ft 451 kts 327°
2026-05-05 23:59 20.42069 -71.39802 25977 ft 450 kts 316°
2026-05-05 23:59 20.44132 -71.42294 26227 ft 448 kts 307°
2026-05-06 00:00 20.46048 -71.44914 26497 ft 449 kts 307°
2026-05-06 00:00 20.47960 -71.47549 26734 ft 450 kts 307°
2026-05-06 00:00 20.49881 -71.50187 26932 ft 451 kts 307°
2026-05-06 00:00 20.51817 -71.52830 27135 ft 453 kts 307°
2026-05-06 00:01 20.53767 -71.55473 27347 ft 453 kts 307°
2026-05-06 00:01 20.55722 -71.58113 27599 ft 452 kts 307°
2026-05-06 00:01 20.57672 -71.60738 27908 ft 450 kts 307°
2026-05-06 00:01 20.59589 -71.63316 28199 ft 449 kts 307°
2026-05-06 00:02 20.61526 -71.65922 28492 ft 448 kts 307°
2026-05-06 00:02 20.63465 -71.68531 28801 ft 446 kts 307°
2026-05-06 00:02 20.65390 -71.71122 29135 ft 445 kts 307°
2026-05-06 00:02 20.67307 -71.73705 29487 ft 443 kts 307°
2026-05-06 00:03 20.69217 -71.76279 29848 ft 441 kts 307°
2026-05-06 00:03 20.71119 -71.78845 30196 ft 440 kts 307°
2026-05-06 00:03 20.73019 -71.81409 30467 ft 440 kts 307°
2026-05-06 00:03 20.74916 -71.83970 30693 ft 441 kts 307°
2026-05-06 00:04 20.76748 -71.86445 30931 ft 441 kts 307°
2026-05-06 00:04 20.78631 -71.88989 31216 ft 441 kts 307°
2026-05-06 00:04 20.80557 -71.91592 31503 ft 441 kts 308°
2026-05-06 00:04 20.82455 -71.94161 31837 ft 440 kts 308°
2026-05-06 00:05 20.86211 -71.99243 32574 ft 437 kts 309°
2026-05-06 00:05 20.88097 -72.01797 32878 ft 438 kts 309°
2026-05-06 00:05 20.89989 -72.04360 33203 ft 438 kts 309°
2026-05-06 00:06 20.91872 -72.06914 33560 ft 437 kts 309°
2026-05-06 00:06 20.93747 -72.09456 33930 ft 436 kts 309°
2026-05-06 00:06 20.95623 -72.12001 34230 ft 435 kts 309°
2026-05-06 00:06 20.97500 -72.14550 34504 ft 435 kts 309°
2026-05-06 00:07 20.99373 -72.17093 34783 ft 435 kts 309°
2026-05-06 00:07 21.01245 -72.19638 35062 ft 434 kts 309°
2026-05-06 00:07 21.03112 -72.22176 35325 ft 434 kts 308°
2026-05-06 00:07 21.04978 -72.24713 35586 ft 434 kts 308°
2026-05-06 00:08 21.06838 -72.27243 35909 ft 431 kts 309°
2026-05-06 00:08 21.08693 -72.29767 36012 ft 433 kts 309°
2026-05-06 00:08 21.10554 -72.32301 36038 ft 432 kts 309°
2026-05-06 00:09 21.14260 -72.37351 36038 ft 429 kts 309°
2026-05-06 00:09 21.17939 -72.42370 36041 ft 428 kts 309°
2026-05-06 00:10 21.21612 -72.47384 36051 ft 427 kts 309°
2026-05-06 00:10 21.25253 -72.52358 36044 ft 427 kts 309°
2026-05-06 00:11 21.28916 -72.57367 36047 ft 426 kts 309°
2026-05-06 00:11 21.32573 -72.62373 36050 ft 426 kts 309°
2026-05-06 00:12 21.36221 -72.67371 36043 ft 425 kts 309°
2026-05-06 00:12 21.39864 -72.72367 36047 ft 425 kts 309°
2026-05-06 00:13 21.43504 -72.77362 36049 ft 425 kts 309°
2026-05-06 00:13 21.47146 -72.82365 36049 ft 425 kts 309°
2026-05-06 00:14 21.50787 -72.87371 36047 ft 425 kts 309°
2026-05-06 00:14 21.54422 -72.92374 36046 ft 425 kts 309°
2026-05-06 00:15 21.58061 -72.97387 36061 ft 424 kts 310°
2026-05-06 00:15 21.61682 -73.02380 36047 ft 423 kts 310°
2026-05-06 00:16 21.65293 -73.07362 36051 ft 421 kts 310°
2026-05-06 00:16 21.68887 -73.12327 36051 ft 420 kts 310°
2026-05-06 00:17 21.72452 -73.17255 36052 ft 420 kts 310°
2026-05-06 00:17 21.76037 -73.22215 36052 ft 420 kts 310°
2026-05-06 00:18 21.79621 -73.27179 36050 ft 420 kts 310°
2026-05-06 00:18 21.83202 -73.32143 36057 ft 419 kts 310°
2026-05-06 00:19 21.86778 -73.37106 36050 ft 419 kts 310°
2026-05-06 00:19 21.90345 -73.42059 36055 ft 418 kts 310°
2026-05-06 00:20 21.93905 -73.47008 36077 ft 418 kts 310°
2026-05-06 00:20 21.97462 -73.51957 36059 ft 417 kts 310°
2026-05-06 00:21 22.01005 -73.56891 36049 ft 416 kts 310°
2026-05-06 00:21 22.04540 -73.61820 36052 ft 415 kts 310°
2026-05-06 00:22 22.08071 -73.66745 36051 ft 415 kts 309°
2026-05-06 00:22 22.11596 -73.71668 36051 ft 415 kts 309°
2026-05-06 00:23 22.14528 -73.75766 36052 ft 414 kts 309°
2026-05-06 00:23 22.18054 -73.80698 36054 ft 414 kts 309°
2026-05-06 00:24 22.21570 -73.85621 36053 ft 415 kts 309°
2026-05-06 00:24 22.25091 -73.90556 36056 ft 415 kts 309°
2026-05-06 00:25 22.28613 -73.95496 36054 ft 415 kts 309°
2026-05-06 00:25 22.32129 -74.00433 36061 ft 415 kts 309°
2026-05-06 00:26 22.35622 -74.05342 36053 ft 414 kts 309°
2026-05-06 00:26 22.39132 -74.10279 36055 ft 414 kts 309°
2026-05-06 00:27 22.42636 -74.15212 36059 ft 414 kts 309°
2026-05-06 00:27 22.46137 -74.20146 36057 ft 414 kts 309°
2026-05-06 00:28 22.49636 -74.25081 36053 ft 414 kts 309°
2026-05-06 00:28 22.53137 -74.30024 36056 ft 414 kts 309°
2026-05-06 00:29 22.56633 -74.34965 36054 ft 414 kts 309°
2026-05-06 00:29 22.60130 -74.39912 36051 ft 414 kts 309°
2026-05-06 00:30 22.63628 -74.44865 36057 ft 414 kts 309°
2026-05-06 00:30 22.67127 -74.49824 36077 ft 414 kts 309°
2026-05-06 00:31 22.70625 -74.54786 36055 ft 414 kts 309°
2026-05-06 00:31 22.74115 -74.59742 36053 ft 413 kts 309°
2026-05-06 00:32 22.77573 -74.64657 36056 ft 413 kts 309°
2026-05-06 00:32 22.81049 -74.69602 36058 ft 412 kts 309°
2026-05-06 00:33 22.84522 -74.74547 36055 ft 412 kts 309°
2026-05-06 00:33 22.87994 -74.79496 36055 ft 412 kts 309°
2026-05-06 00:34 22.91463 -74.84445 36056 ft 412 kts 309°
2026-05-06 00:34 22.94935 -74.89404 36057 ft 412 kts 309°
2026-05-06 00:35 22.98407 -74.94367 36060 ft 413 kts 309°
2026-05-06 00:35 23.01875 -74.99330 36056 ft 413 kts 309°
2026-05-06 00:36 23.05314 -75.04257 36064 ft 412 kts 308°
2026-05-06 00:36 23.08792 -75.09181 36049 ft 410 kts 311°
2026-05-06 00:37 23.12833 -75.13519 36052 ft 408 kts 317°
2026-05-06 00:37 23.16984 -75.17738 36058 ft 408 kts 317°
2026-05-06 00:38 23.21123 -75.21969 36058 ft 408 kts 317°
2026-05-06 00:38 23.25240 -75.26202 36057 ft 408 kts 316°
2026-05-06 00:39 23.29364 -75.30452 36055 ft 408 kts 316°
2026-05-06 00:39 23.33486 -75.34705 36055 ft 408 kts 316°
2026-05-06 00:40 23.37612 -75.38968 36075 ft 409 kts 316°
2026-05-06 00:40 23.41705 -75.43198 36053 ft 408 kts 316°
2026-05-06 00:41 23.45813 -75.47450 36056 ft 407 kts 316°
2026-05-06 00:41 23.49923 -75.51706 36051 ft 407 kts 316°
2026-05-06 00:42 23.54025 -75.55957 36051 ft 407 kts 316°
2026-05-06 00:42 23.58128 -75.60214 36052 ft 407 kts 316°
2026-05-06 00:43 23.62227 -75.64471 36055 ft 407 kts 316°
2026-05-06 00:43 23.66322 -75.68726 36055 ft 407 kts 316°
2026-05-06 00:44 23.70421 -75.72991 36054 ft 407 kts 316°
2026-05-06 00:44 23.74516 -75.77255 36062 ft 407 kts 316°
2026-05-06 00:45 23.78606 -75.81518 36050 ft 406 kts 316°
2026-05-06 00:45 23.82662 -75.85750 36051 ft 406 kts 316°
2026-05-06 00:46 23.86722 -75.89989 36052 ft 405 kts 316°
2026-05-06 00:46 23.90790 -75.94240 36052 ft 405 kts 316°
2026-05-06 00:47 23.94865 -75.98502 36052 ft 405 kts 316°
2026-05-06 00:47 23.98932 -76.02761 36052 ft 405 kts 316°
2026-05-06 00:48 24.03002 -76.07027 36052 ft 405 kts 316°
2026-05-06 00:48 24.07074 -76.11298 36052 ft 405 kts 316°
2026-05-06 00:49 24.11152 -76.15581 36044 ft 405 kts 316°
2026-05-06 00:49 24.15198 -76.19833 36052 ft 405 kts 316°
2026-05-06 00:50 24.18953 -76.24428 36054 ft 406 kts 310°
2026-05-06 00:50 24.22500 -76.29238 36048 ft 406 kts 310°
2026-05-06 00:51 24.26050 -76.34048 36047 ft 406 kts 310°
2026-05-06 00:51 24.29615 -76.38861 36049 ft 406 kts 310°
2026-05-06 00:52 24.33182 -76.43669 36049 ft 406 kts 310°
2026-05-06 00:52 24.36747 -76.48478 36046 ft 406 kts 310°
2026-05-06 00:53 24.40290 -76.53263 36045 ft 406 kts 310°
2026-05-06 00:53 24.42078 -76.55678 35556 ft 406 kts 309°
2026-05-06 00:53 24.43853 -76.58079 34673 ft 408 kts 309°
2026-05-06 00:53 24.45644 -76.60502 33833 ft 409 kts 309°
2026-05-06 00:54 24.47445 -76.62939 32863 ft 412 kts 309°
2026-05-06 00:54 24.49253 -76.65387 31918 ft 414 kts 309°
2026-05-06 00:54 24.51077 -76.67858 30954 ft 417 kts 308°
2026-05-06 00:54 24.52908 -76.70341 30427 ft 411 kts 308°
2026-05-06 00:55 24.54698 -76.72767 30196 ft 412 kts 308°
2026-05-06 00:55 24.56525 -76.75249 29909 ft 425 kts 308°
2026-05-06 00:55 24.58434 -76.77842 28613 ft 441 kts 308°
2026-05-06 00:55 24.60362 -76.80461 27449 ft 441 kts 308°
2026-05-06 00:56 24.62290 -76.83079 26316 ft 441 kts 308°
2026-05-06 00:56 24.64182 -76.85730 25224 ft 439 kts 304°
2026-05-06 00:56 24.65869 -76.88516 24223 ft 437 kts 302°
2026-05-06 00:56 24.67481 -76.91332 23207 ft 434 kts 301°
2026-05-06 00:57 24.69063 -76.94141 22189 ft 430 kts 301°
2026-05-06 00:57 24.70629 -76.96920 21253 ft 424 kts 301°
2026-05-06 00:57 24.72183 -76.99662 20536 ft 419 kts 301°
2026-05-06 00:57 24.73713 -77.02345 20359 ft 415 kts 301°
2026-05-06 00:58 24.75220 -77.04978 20221 ft 398 kts 301°
2026-05-06 00:58 24.76661 -77.07487 20097 ft 378 kts 301°
2026-05-06 00:58 24.78046 -77.09867 20038 ft 359 kts 305°
2026-05-06 00:58 24.79780 -77.11733 20035 ft 343 kts 325°
2026-05-06 00:59 24.81907 -77.12791 20038 ft 330 kts 338°
2026-05-06 00:59 24.84067 -77.13519 19835 ft 322 kts 340°
2026-05-06 00:59 24.86211 -77.14184 19476 ft 318 kts 341°
2026-05-06 00:59 24.88331 -77.14833 18939 ft 314 kts 341°
2026-05-06 01:00 24.90428 -77.15476 18352 ft 313 kts 341°
2026-05-06 01:00 24.92527 -77.16126 17593 ft 314 kts 341°
2026-05-06 01:00 24.94639 -77.16780 16737 ft 317 kts 341°
2026-05-06 01:00 24.96799 -77.17448 15630 ft 328 kts 341°
2026-05-06 01:01 24.99003 -77.18128 14581 ft 337 kts 341°
2026-05-06 01:01 25.01308 -77.18833 13492 ft 343 kts 341°
2026-05-06 01:01 25.03622 -77.19536 12359 ft 346 kts 341°
2026-05-06 01:01 25.05951 -77.20240 11295 ft 347 kts 341°
2026-05-06 01:02 25.08271 -77.20939 10691 ft 338 kts 341°
2026-05-06 01:02 25.10475 -77.21591 10729 ft 338 kts 341°
2026-05-06 01:02 25.12850 -77.22300 10747 ft 369 kts 341°
2026-05-06 01:02 25.15330 -77.23045 10709 ft 364 kts 341°
2026-05-06 01:03 25.17711 -77.23756 10668 ft 343 kts 341°
2026-05-06 01:03 25.19949 -77.24417 10650 ft 323 kts 341°
2026-05-06 01:03 25.22061 -77.25030 10617 ft 303 kts 341°
2026-05-06 01:03 25.24025 -77.25589 10580 ft 283 kts 341°
2026-05-06 01:04 25.25932 -77.26133 10580 ft 281 kts 338°
2026-05-06 01:04 25.27598 -77.27144 10566 ft 271 kts 312°
2026-05-06 01:04 25.28570 -77.28858 10520 ft 265 kts 283°
2026-05-06 01:04 25.28548 -77.30878 10164 ft 268 kts 251°
2026-05-06 01:05 25.27552 -77.32606 9850 ft 267 kts 235°
2026-05-06 01:05 25.26751 -77.34419 9447 ft 262 kts 257°
2026-05-06 01:05 25.26389 -77.36374 9083 ft 257 kts 260°
2026-05-06 01:05 25.26096 -77.38271 8723 ft 243 kts 261°
2026-05-06 01:06 25.25825 -77.40084 8206 ft 236 kts 261°
2026-05-06 01:06 25.25563 -77.41849 7720 ft 230 kts 261°
2026-05-06 01:06 25.25310 -77.43572 7246 ft 224 kts 261°
2026-05-06 01:06 25.25063 -77.45251 6793 ft 218 kts 261°
2026-05-06 01:07 25.24517 -77.46755 6298 ft 215 kts 232°
2026-05-06 01:07 25.23414 -77.47847 5824 ft 210 kts 229°
2026-05-06 01:07 25.22798 -77.49258 5312 ft 205 kts 264°
2026-05-06 01:07 25.23075 -77.50767 4831 ft 204 kts 300°
2026-05-06 01:08 25.24061 -77.51882 4366 ft 203 kts 320°
2026-05-06 01:08 25.25183 -77.52840 3869 ft 203 kts 321°
2026-05-06 01:08 25.26306 -77.53785 3389 ft 203 kts 321°
2026-05-06 01:08 25.27428 -77.54727 2897 ft 202 kts 321°
2026-05-06 01:09 25.28559 -77.55675 2421 ft 206 kts 321°
2026-05-06 01:09 25.29441 -77.56851 2080 ft 199 kts 289°
2026-05-06 01:09 25.29474 -77.58279 1996 ft 180 kts 249°
2026-05-06 01:09 25.28762 -77.59305 2002 ft 164 kts 223°
2026-05-06 01:10 25.27888 -77.60144 1993 ft 167 kts 221°
2026-05-06 01:10 25.27004 -77.60975 1987 ft 166 kts 221°
2026-05-06 01:10 25.26136 -77.61787 1987 ft 162 kts 221°
2026-05-06 01:10 25.25272 -77.62592 1997 ft 163 kts 221°
2026-05-06 01:11 25.24406 -77.63399 2001 ft 163 kts 221°
2026-05-06 01:11 25.23439 -77.64039 1968 ft 165 kts 190°
2026-05-06 01:11 25.22307 -77.63968 2005 ft 164 kts 173°
2026-05-06 01:11 25.21172 -77.63758 2006 ft 166 kts 172°
2026-05-06 01:12 25.20412 -77.63612 1998 ft 168 kts 171°
2026-05-06 01:12 25.19286 -77.63263 1971 ft 171 kts 146°
2026-05-06 01:12 25.18471 -77.62332 2005 ft 169 kts 135°
2026-05-06 01:12 25.17624 -77.61421 2003 ft 170 kts 137°
2026-05-06 01:13 25.16771 -77.60500 2002 ft 172 kts 136°
2026-05-06 01:13 25.15922 -77.59563 1998 ft 173 kts 136°
2026-05-06 01:13 25.15076 -77.58622 1997 ft 172 kts 136°
2026-05-06 01:13 25.14235 -77.57685 1988 ft 170 kts 135°
2026-05-06 01:14 25.12672 -77.55939 2026 ft 148 kts 136°
2026-05-06 01:14 25.11947 -77.55132 1859 ft 146 kts 136°
2026-05-06 01:14 25.11237 -77.54340 1688 ft 145 kts 136°
2026-05-06 01:15 25.10535 -77.53557 1503 ft 143 kts 136°
2026-05-06 01:15 25.09837 -77.52779 1325 ft 142 kts 137°
2026-05-06 01:15 25.09143 -77.52004 1132 ft 141 kts 137°
2026-05-06 01:15 25.08456 -77.51230 955 ft 139 kts 137°
2026-05-06 01:16 25.07786 -77.50467 801 ft 138 kts 137°
2026-05-06 01:16 25.07105 -77.49708 638 ft 140 kts 138°
2026-05-06 01:16 25.06428 -77.48945 451 ft 141 kts 136°
2026-05-06 01:16 25.05739 -77.48185 244 ft 139 kts 136°
2026-05-06 01:17 25.05068 -77.47439 53 ft 133 kts 137°
2026-05-06 01:17 25.04468 -77.46776 21 ft 104 kts 135°
2026-05-06 01:17 25.04063 -77.46328 18 ft 61 kts 134°
2026-05-06 01:17 25.03865 -77.46108 20 ft 20 kts 134°
2026-05-06 01:18 25.03840 -77.46079 21 ft 4 kts 134°
2026-05-06 01:18 25.03798 -77.46031 21 ft 13 kts 134°
2026-05-06 01:18 25.03767 -77.45941 19 ft 11 kts 62°
2026-05-06 01:18 25.03818 -77.45879 17 ft 14 kts 45°
2026-05-06 01:19 25.03862 -77.45853 16 ft 6 kts 345°
2026-05-06 01:19 25.03904 -77.45890 16 ft 10 kts 319°
2026-05-06 01:19 25.03962 -77.45957 18 ft 15 kts 314°
2026-05-06 01:19 25.04044 -77.46047 17 ft 18 kts 313°
2026-05-06 01:20 25.04131 -77.46146 17 ft 14 kts 315°
2026-05-06 01:20 25.04207 -77.46229 16 ft 17 kts 315°
2026-05-06 01:20 25.04297 -77.46329 17 ft 20 kts 314°
2026-05-06 01:20 25.04394 -77.46438 18 ft 17 kts 315°
2026-05-06 01:21 25.04460 -77.46512 17 ft 14 kts 314°
2026-05-06 01:21 25.04540 -77.46556 16 ft 13 kts 25°
2026-05-06 01:21 25.04610 -77.46547 16 ft 10 kts 318°
2026-05-06 01:21 25.04658 -77.46598 16 ft 10 kts 315°
2026-05-06 01:22 25.04707 -77.46651 17 ft 10 kts 314°
2026-05-06 01:22 25.04758 -77.46681 16 ft 7 kts 22°
2026-05-06 01:22 25.04799 -77.46643 16 ft 9 kts 44°
2026-05-06 01:22 25.04828 -77.46618 16 ft 5 kts 22°
2026-05-06 01:23 25.04858 -77.46626 16 ft 5 kts 330°
2026-05-06 01:23 25.04877 -77.46639 16 ft 1 kts 327°
2026-05-06 01:23 25.04878 -77.46640 16 ft 0 kts 327°